#timestamp,LO_Frequency,Hit,StdDev 
1512954015.2,286046998.1,N
1512954065.1,286047004.3,E
1512954075.9,286047002.1,N
1512954095.7,286046998.9,P
1512954115.5,286046998.8,N
1512954135.4,286046996.5,N
1512954155.2,286046999.1,N
1512954175.1,286046993.8,Y
1512954176.0,286046993.8,P
1512954195.8,286046995.1,N
1512954215.6,286046994.9,N
1512954235.5,286046996.8,N
1512954255.3,286046997.2,N
1512954275.2,286046997.3,N
1512954295.9,286046996.8,N
1512954315.7,286046999.1,N
1512954335.6,286046996.6,N
1512954355.4,286046995.7,N
1512954375.2,286046995.8,N
1512954395.1,286046995.3,Y
1512954396.0,286046995.3,P
1512954415.8,286046998.8,N
1512954435.7,286047001.2,N
1512954455.5,286047000.6,N
1512954475.3,286047001.0,N
1512954495.2,286046998.6,N
1512954515.0,286046997.2,N
1512954515.9,286046997.2,N
1512954535.8,286046995.6,N
1512954555.6,286046995.6,N
1512954575.4,286046999.6,N
1512954595.3,286046999.0,N
1512954615.1,286046999.1,N
1512954635.9,286046996.9,N
1512954655.7,286046998.5,N
1512954675.5,286046996.5,N
1512954695.4,286046996.6,N
1512954715.2,286046999.2,N
1512954735.1,286046993.6,Y
1512954736.0,286046993.6,P
1512954755.8,286046993.9,N
1512954775.6,286046993.9,P
1512954795.5,286046997.9,N
1512954815.3,286046996.0,N
1512954835.2,286046993.5,Y
1512954855.9,286047001.9,P
1512954875.7,286047002.9,N
1512954895.6,286047003.3,N
1512954915.4,286047003.7,N
1512954935.3,286047000.0,N
1512954955.1,286047001.0,N
1512954956.0,286047001.0,N
1512954975.8,286047003.9,N
1512954995.7,286047003.2,N
1512955015.5,286047005.4,N
1512955035.4,286047008.0,Y
1512955055.2,286047005.0,P
1512955075.0,286047005.5,P
1512955075.9,286047005.5,P
1512955095.8,286047004.7,Y
1512955115.6,286047000.0,P
1512955135.4,286047002.8,N
1512955155.3,286047000.0,N
1512955175.1,286047000.9,N
1512955195.9,286047000.6,N
1512955215.7,286046996.5,N
1512955235.5,286046996.7,N
1512955255.4,286046998.5,N
1512955275.2,286046996.7,N
1512955295.1,286046995.2,N
1512955296.0,286046995.2,N
1512955315.8,286046996.8,N
1512955335.6,286046997.0,N
1512955355.5,286047001.1,N
1512955375.3,286047000.0,N
1512955395.2,286047002.6,N
1512955415.9,286047002.7,N
1512955435.7,286047002.5,N
1512955455.6,286047002.5,N
1512955475.4,286047000.1,N
1512955495.2,286046999.8,N
1512955515.1,286046999.7,N
1512955516.0,286046999.7,N
1512955535.8,286047003.3,N
1512955555.7,286047006.0,N
1512955575.5,286047000.5,N
1512955595.3,286046996.1,N
1512955615.2,286046995.0,N
1512955635.0,286046998.0,N
1512955635.9,286046998.0,N
1512955655.8,286046992.1,N
1512955675.6,286046990.2,Y
1512955695.4,286046991.5,P
1512955715.3,286046990.1,N
1512955735.1,286046996.3,N
1512955755.9,286046993.8,N
1512955775.7,286046992.5,N
1512955795.5,286046992.3,N
1512955815.4,286046996.5,N
1512955835.2,286047015.1,Y
1512955855.0,286047018.8,P
1512955855.9,286047018.8,N
1512955875.8,286047013.1,N
1512955895.6,286047006.8,N
1512955915.5,286047004.2,N
1512955935.3,286047001.2,N
1512955955.1,286046995.1,N
1512955975.9,286046992.0,N
1512955995.7,286046992.5,N
1512956015.6,286046993.0,N
1512956035.4,286046993.0,N
1512956055.2,286046990.3,N
1512956075.1,286046991.4,N
1512956076.0,286046991.4,N
1512956095.8,286046987.8,N
1512956115.7,286046987.6,N
1512956135.5,286046988.2,N
1512956155.3,286046983.9,N
1512956175.2,286046982.9,N
1512956195.0,286046982.1,N
1512956195.9,286046982.1,N
1512956215.8,286046983.7,N
1512956235.6,286046987.9,N
1512956255.4,286046984.4,N
1512956275.3,286046984.0,N
1512956295.1,286046983.6,N
1512956315.8,286046983.1,N
1512956335.7,286046983.3,N
1512956355.5,286046981.1,N
1512956375.4,286046979.1,N
1512956395.2,286046980.6,N
1512956415.0,286046982.0,N
1512956415.9,286046982.0,N
1512956435.8,286046980.9,N
1512956455.6,286046981.1,Y
1512956475.5,286046995.0,P
1512956495.3,286046995.7,N
1512956515.1,286046995.5,N
1512956535.9,286046996.5,N
1512956555.7,286046997.7,N
1512956575.6,286046996.8,N
1512956595.4,286046999.3,N
1512956615.2,286046998.6,N
1512956635.1,286046996.9,N
1512956636.0,286046996.9,N
1512956655.8,286046997.4,N
1512956675.6,286046996.4,N
1512956695.5,286046997.7,N
1512956715.3,286047000.5,N
1512956735.2,286046999.9,N
1512956755.9,286046998.6,N
1512956775.7,286046996.6,N
1512956795.6,286046995.1,N
1512956815.4,286046995.5,N
1512956835.2,286046998.8,N
1512956855.1,286047002.2,N
1512956856.0,286047002.2,N
1512956875.8,286047001.8,N
1512956895.7,286047001.4,N
1512956915.5,286047001.3,N
1512956935.3,286047004.0,N
1512956955.2,286047004.7,N
1512956975.0,286047005.6,N
1512956975.9,286047005.6,N
1512956995.8,286047003.4,N
1512957015.6,286047004.4,N
1512957035.4,286046998.5,N
1512957055.3,286047000.6,N
1512957075.1,286047002.4,N
1512957095.8,286047003.8,N
1512957115.7,286047005.1,N
1512957135.5,286047007.4,N
1512957155.4,286047021.9,Y
1512957175.2,286047020.1,P
1512957195.0,286047011.2,N
1512957195.9,286047011.2,N
1512957215.8,286047010.6,N
1512957235.6,286047007.5,N
1512957255.5,286047003.4,N
1512957275.3,286047003.6,N
1512957295.1,286047001.3,N
1512957315.9,286047001.6,N
1512957335.7,286047005.9,N
1512957385.6,286047003.7,E
1512957395.5,286047001.3,N
1512957415.3,286047001.0,P
1512957435.2,286046999.5,P
1512957455.0,286046999.3,N
1512957455.9,286046999.3,N
1512957475.8,286046997.1,Y
1512957495.6,286046994.1,P
1512957515.4,286046994.0,N
1512957535.3,286046994.0,N
1512957555.1,286046995.4,N
1512957575.9,286046996.5,N
1512957595.7,286046998.5,N
